Location: Cucq
(50.4773°N, 1.6202°E)
Time: 05:38:47
(UTC+00:00)

Cosmos 2219 Rocket - Pass Details

Date: 07 August 2020
Orbit: 826 x 848 km, 71.0° (Epoch: 23 September)

Event Time Altitude Azimuth Distance (km) Brightness Sun altitude
Rises 01:46:23 0° 319° (NW) 3,416 5.7 -19.2°
Reaches altitude 10° 01:49:36 10° 301° (WNW) 2,478 4.7 -18.9°
Maximum altitude 01:53:14 18° 261° (W) 1,983 3.8 -18.7°
Enters shadow 01:53:23 18° 259° (W) 1,984 3.8 -18.7°
